Welcome to the New NWS' Forecast!
Most changes are behind the scenes, but click here for differences you might notice.
Latest weather observations around

Anniston Metro Airport (KANB)

Using International System of Units (Switch to English Units)
Date/ Time (CDT) Wind (kph) Vis. (km) Weather Sky Cond. Temp (°C) Rel. Humidity Wind Chill (°C) Heat Index (°C) Pressure Precip. (cm)
Air Dwpt 6 hour Altimeter (hPa) Sea level (hPa) 1 hr 3 hr 6 hr
Max Min
Aug 14 22:53 Calm 16.09 Clear CLR 24 21     84%   25 1018.3 1017      
Aug 14 21:53 Calm 16.09 Partly Cloudy SCT065 24 21     84%   25 1018 1016.8      
Aug 14 20:53 Calm 16.09 Clear CLR 24 21     82%   25 1016.9 1016      
Aug 14 19:53 Calm 14.48 Clear CLR 27 21     67%   29 1016.3 1015.4      
Aug 14 18:53 N 5 16.09 Clear CLR 31 18     46%   31 1016.3 1015.4      
Aug 14 17:53 N 9 16.09 Clear CLR 32 18     42%   33 1016.3 1015.1      
Aug 14 16:53 N 8 16.09 Clear CLR 33 17     38%   33 1016.3 1015.2      
Aug 14 15:53 N 13 16.09 Clear CLR 33 14     33%   32 1016.3 1015.1      
Aug 14 14:53 11 16.09 Clear CLR 33 16     36%   33 1016.6 1015.5      
Aug 14 13:53 N 8 16.09 Clear CLR 33 17     38%   33 1016.9 1015.8      
Aug 14 12:53 8 16.09 Clear CLR 32 18     42%   33 1017.6 1016.4      
Aug 14 11:53 Calm 16.09 Clear CLR 31 17     43%   31 1018 1017      
Aug 14 10:53 SSW 5 16.09 Clear CLR 30 17     45%   30 1018.3 1017.1      
Aug 14 09:53 E 8 16.09 Clear CLR 28 19     60%   29 1018.3 1017.4      
Aug 14 08:53 E 5 16.09 Clear CLR 24 20     76%   25 1018.3 1017.2      
Aug 14 07:53 NE 8 16.09 Clear CLR 22 19     84%   22 1018.3 1017.3      
Aug 14 05:53 ENE 5 16.09 Clear CLR 20 18     90%     1017.6 1016.5      
Aug 14 04:53 Calm 16.09 Clear CLR 20 18     90%     1017.3 1016.1      
Aug 14 02:53 E 5 16.09 Clear CLR 21 19     90%     1016.6 1015.5      
Aug 14 01:53 SE 8 16.09 Clear CLR 21 19     87%     1016.6 1015.5      
Aug 14 00:53 NE 5 16.09 Mostly Clear FEW060 22 20     87%   23 1017.3 1016.1      
Aug 13 23:53 NE 8 16.09 Mostly Cloudy BKN060 23 20     84%   23 1017.6 1016.4      
Aug 13 22:53 Calm 16.09 Clear CLR 24 20     79%   24 1017.6 1016.4      
Aug 13 21:53 Calm 16.09 Mostly Clear FEW060 24 21     84%   25 1017.3 1016.3      
Aug 13 19:53 Calm 16.09 Clear CLR 26 21     76%   26 1016.3 1015.2      
Aug 13 18:53 N 8 16.09 Clear CLR 29 18     50%   30 1015.6 1014.5      
Aug 13 17:53 N 13 16.09 Clear CLR 31 18     45%   32 1015.6 1014.6      
Aug 13 16:53 N 11 16.09 Clear CLR 32 16     37%   32 1015.9 1014.6      
Aug 13 14:53 NNE 11 16.09 Mostly Clear FEW060 32 18     42%   33 1016.6 1015.5      
Aug 13 13:53 WSW 11 16.09 Mostly Clear FEW055 32 18     45%   33 1017.6 1016.4      
Aug 13 12:53 Calm 16.09 Clear CLR 31 19     48%   32 1018 1016.9      
Aug 13 11:53 5 16.09 Clear CLR 31 18     47%   32 1018.6 1017.5      
Aug 13 10:53 8 16.09 Mostly Clear FEW041 30 21     59%   33 1018.6 1017.5      
Aug 13 09:53 Calm 16.09 Clear CLR 29 21     63%   31 1018.6 1017.6      
Aug 13 06:53 Calm 11.27 Clear CLR 22 21     93%   23 1018.3 1017.2      
Aug 13 05:53 Calm 14.48 Clear CLR 22 21     93%   23 1018 1016.7      
Aug 13 01:53 Calm 16.09 Clear CLR 23 22     94%   24 1017.6 1016.5      
Aug 12 22:53 Calm 16.09 Mostly Cloudy SCT060 BKN075 24 23     91%   25 1018.3 1017      
Aug 12 21:53 Calm 16.09 Clear CLR 24 23     91%   25 1018 1017      
Aug 12 16:53 SW 13 16.09 Clear CLR 31 22     61%   34 1015.9 1014.8      
Aug 12 14:53 NW 9 16.09 Clear CLR 31 22     57%   34 1016.9 1015.8      
Aug 12 13:53 N 11 16.09 Partly Cloudy SCT047 SCT070 32 22     54%   36 1017.3 1016      
Aug 12 12:53 W 15 16.09 Mostly Clear FEW040 32 22     56%   36 1017.6 1016.6      
Aug 12 03:53 Calm 8.05 Fog/Mist CLR 21 20     96%     1016.9 1015.7      
Aug 12 02:53 Calm 12.87 Clear CLR 21 20     93%     1016.9 1016      
Aug 12 01:53 Calm 16.09 Clear CLR 22 21     93%   22 1016.9 1015.8      
Aug 12 00:53 Calm 12.87 Clear CLR 22 21     93%   22 1016.6 1015.5      
May 14 23:53 Calm 16.09 Clear CLR 23 20     84%   23 1015.2 1014      
May 14 10:53 N 11 16.09 Mostly Clear FEW055 31 17     43%   32 1017.6 1016.7      
May 13 07:53 E 5 16.09 Clear CLR 19 17     84%     1021.3 1020.6      
May 13 01:53 Calm 16.09 Clear CLR 17 16     90%     1018.6 1017.8      
May 12 13:53 11 16.09 Clear CLR 32 13     33%   31 1020 1019.2      
May 12 01:53 Calm 16.09 Clear CLR 18 16     90%     1019.3 1018.4      
Notice The following observation data may not be complete
May 11 19:53 Calm 16.09 Clear CLR   17      %     1018.6 1017.9      
Jun 11 20:53 Calm 16.09 Partly Cloudy SCT048 SCT080 27 21     71%   28 1019.7 1018.7      
Jun 11 08:33 ENE 8 16.09 Partly Cloudy SCT018 24 21     79%   25 1022.4        
Jun 10 18:53 SSE 8 16.09 Clear CLR 28 17     49%   29 1017.6 1016.8      
Jun 09 15:53 WSW 13 16.09 Clear CLR 28 14     41%   28 1014.2 1013.5      
Jun 09 00:53 Calm 16.09 Clear CLR 18 16     87%     1013.2 1012.4